�������l�o���
Date,Time,MP-1(��Sv/h),MP-2(��Sv/h),MP-3(��Sv/h),MP-4(��Sv/h),MP-5(��Sv/h),MP-6(��Sv/h),MP-7(��Sv/h),����,����(m/s),���J
2019/10/18,00:00,0.183,0.163,0.277,0.260,0.262,0.140,0.087,���k��,1.8,��
2019/10/18,00:10,0.185,0.163,0.276,0.258,0.260,0.140,0.087,���k��,1.3,��
2019/10/18,00:20,0.184,0.162,0.276,0.259,0.262,0.140,0.086,���k��,1.7,��
2019/10/18,00:30,0.186,0.163,0.276,0.258,0.261,0.139,0.087,�k��,3.3,��
2019/10/18,00:40,0.183,0.162,0.277,0.260,0.262,0.140,0.087,�k��,4.5,��
2019/10/18,00:50,0.184,0.164,0.276,0.259,0.262,0.140,0.086,�k�k��,4.9,��
2019/10/18,01:00,0.184,0.163,0.276,0.259,0.262,0.141,0.087,�k,3.8,��
2019/10/18,01:10,0.183,0.164,0.275,0.261,0.261,0.140,0.087,�k,4.6,��
2019/10/18,01:20,0.184,0.164,0.276,0.259,0.263,0.141,0.087,�k,4.9,��
2019/10/18,01:30,0.184,0.163,0.277,0.261,0.262,0.140,0.086,�k,5.1,��
2019/10/18,01:40,0.185,0.164,0.276,0.258,0.263,0.141,0.086,�k�k��,4.6,��
2019/10/18,01:50,0.184,0.163,0.276,0.261,0.262,0.140,0.088,�k�k��,4.6,��
2019/10/18,02:00,0.185,0.164,0.275,0.258,0.262,0.142,0.087,�k�k��,4.2,��
2019/10/18,02:10,0.184,0.163,0.276,0.261,0.263,0.141,0.087,�k�k��,4.3,��
2019/10/18,02:20,0.185,0.163,0.278,0.259,0.261,0.141,0.086,�k�k��,5.4,��
2019/10/18,02:30,0.185,0.163,0.277,0.261,0.263,0.142,0.087,�k�k��,6.2,��
2019/10/18,02:40,0.185,0.164,0.277,0.258,0.263,0.141,0.086,�k�k��,5.7,��
2019/10/18,02:50,0.183,0.163,0.277,0.260,0.263,0.140,0.086,�k�k��,6.2,��
2019/10/18,03:00,0.186,0.163,0.275,0.258,0.262,0.139,0.087,�k�k��,6.1,��
2019/10/18,03:10,0.184,0.162,0.276,0.259,0.262,0.139,0.087,�k��,7.0,��
2019/10/18,03:20,0.185,0.163,0.275,0.259,0.262,0.140,0.087,�k��,6.3,��
2019/10/18,03:30,0.184,0.163,0.278,0.258,0.262,0.140,0.086,�k��,6.4,��
2019/10/18,03:40,0.184,0.163,0.276,0.259,0.260,0.139,0.086,�k��,6.2,��
2019/10/18,03:50,0.184,0.163,0.276,0.258,0.263,0.139,0.086,�k��,5.6,��
2019/10/18,04:00,0.186,0.163,0.274,0.259,0.261,0.138,0.087,�k��,5.7,��
2019/10/18,04:10,0.184,0.164,0.278,0.258,0.263,0.139,0.086,�k�k��,5.7,��
2019/10/18,04:20,0.184,0.162,0.274,0.260,0.261,0.139,0.087,�k�k��,5.8,��
2019/10/18,04:30,0.185,0.162,0.277,0.258,0.263,0.139,0.086,�k�k��,5.8,��
2019/10/18,04:40,0.184,0.164,0.275,0.260,0.262,0.141,0.086,�k�k��,4.9,��
2019/10/18,04:50,0.185,0.163,0.277,0.257,0.264,0.139,0.086,�k�k��,4.7,��
2019/10/18,05:00,0.184,0.162,0.275,0.260,0.260,0.139,0.086,�k�k��,5.2,��
2019/10/18,05:10,0.185,0.163,0.276,0.259,0.264,0.140,0.086,�k�k��,4.3,��
2019/10/18,05:20,0.183,0.162,0.274,0.261,0.261,0.140,0.086,�k�k��,4.0,��
2019/10/18,05:30,0.184,0.162,0.276,0.258,0.263,0.139,0.086,�k�k��,4.1,��
2019/10/18,05:40,0.183,0.162,0.275,0.261,0.262,0.139,0.086,�k�k��,4.4,��
2019/10/18,05:50,0.185,0.163,0.276,0.259,0.261,0.138,0.087,�k�k��,4.2,��
2019/10/18,06:00,0.184,0.163,0.275,0.259,0.261,0.139,0.086,�k�k��,4.3,��
2019/10/18,06:10,0.186,0.162,0.277,0.257,0.263,0.140,0.086,�k�k��,4.5,��
2019/10/18,06:20,0.184,0.163,0.275,0.260,0.261,0.140,0.087,�k�k��,4.8,��
2019/10/18,06:30,0.186,0.162,0.275,0.258,0.261,0.140,0.086,�k�k��,4.5,��
2019/10/18,06:40,0.183,0.164,0.276,0.260,0.261,0.140,0.087,�k�k��,4.8,��
2019/10/18,06:50,0.185,0.163,0.276,0.258,0.261,0.138,0.086,�k�k��,4.8,��
2019/10/18,07:00,0.183,0.162,0.276,0.257,0.264,0.140,0.087,�k�k��,5.4,��
2019/10/18,07:10,0.185,0.163,0.276,0.260,0.262,0.139,0.086,�k�k��,5.6,��
2019/10/18,07:20,0.183,0.163,0.277,0.258,0.263,0.140,0.086,�k�k��,5.8,��
2019/10/18,07:30,0.185,0.163,0.275,0.260,0.261,0.139,0.087,�k�k��,5.9,��
2019/10/18,07:40,0.183,0.162,0.276,0.258,0.263,0.140,0.086,�k�k��,5.7,��
2019/10/18,07:50,0.185,0.163,0.276,0.260,0.261,0.140,0.087,�k�k��,5.5,��
2019/10/18,08:00,0.184,0.162,0.278,0.258,0.263,0.140,0.087,�k�k��,5.6,��
2019/10/18,08:10,0.185,0.164,0.275,0.260,0.260,0.140,0.087,�k�k��,5.3,��
2019/10/18,08:20,0.184,0.163,0.277,0.258,0.264,0.140,0.086,�k�k��,5.6,��
2019/10/18,08:30,0.185,0.162,0.275,0.259,0.261,0.139,0.087,�k�k��,4.9,��
2019/10/18,08:40,0.185,0.163,0.277,0.258,0.263,0.139,0.086,�k�k��,4.0,��
2019/10/18,08:50,0.185,0.164,0.275,0.261,0.261,0.140,0.086,�k�k��,3.8,��
2019/10/18,09:00,0.184,0.163,0.277,0.258,0.263,0.140,0.086,�k�k��,3.8,��
2019/10/18,09:10,0.185,0.163,0.276,0.260,0.261,0.139,0.087,�k�k��,3.8,��
2019/10/18,09:20,0.184,0.162,0.277,0.259,0.263,0.140,0.086,�k�k��,2.7,��
2019/10/18,09:30,0.185,0.164,0.275,0.260,0.260,0.140,0.087,�k,2.9,��
2019/10/18,09:40,0.184,0.163,0.278,0.257,0.262,0.139,0.086,�k�k��,3.1,��
2019/10/18,09:50,0.184,0.164,0.274,0.260,0.261,0.139,0.087,�k�k��,3.2,��
2019/10/18,10:00,0.184,0.162,0.276,0.257,0.261,0.139,0.087,�k,3.1,��
2019/10/18,10:10,0.185,0.164,0.276,0.258,0.261,0.140,0.087,�k�k��,3.0,��
2019/10/18,10:20,0.184,0.163,0.277,0.259,0.263,0.139,0.087,�k�k��,2.2,��
2019/10/18,10:30,0.185,0.162,0.274,0.258,0.261,0.140,0.087,�k�k��,2.7,��
2019/10/18,10:40,0.184,0.163,0.277,0.258,0.261,0.140,0.087,�k�k��,2.7,��
2019/10/18,10:50,0.185,0.164,0.274,0.259,0.262,0.140,0.086,�k�k��,2.7,��
2019/10/18,11:00,0.184,0.162,0.276,0.259,0.259,0.138,0.086,�k�k��,2.5,��
2019/10/18,11:10,0.185,0.164,0.274,0.258,0.264,0.140,0.087,�k�k��,2.6,��
2019/10/18,11:20,0.183,0.163,0.277,0.258,0.260,0.138,0.087,�k�k��,2.6,��
2019/10/18,11:30,0.184,0.164,0.276,0.259,0.263,0.140,0.086,�k�k��,2.5,��
2019/10/18,11:40,0.185,0.162,0.276,0.260,0.260,0.139,0.086,�k�k��,2.5,��
2019/10/18,11:50,0.184,0.164,0.276,0.260,0.263,0.140,0.086,�k�k��,2.6,��
2019/10/18,12:00,0.184,0.162,0.276,0.260,0.262,0.140,0.086,�k�k��,3.0,��
2019/10/18,12:10,0.185,0.163,0.276,0.258,0.263,0.139,0.086,�k,3.4,��
2019/10/18,12:20,0.184,0.163,0.275,0.259,0.261,0.139,0.086,�k��,2.4,��
2019/10/18,12:30,0.185,0.164,0.276,0.257,0.261,0.140,0.087,�k,1.7,��
2019/10/18,12:40,0.185,0.162,0.276,0.260,0.263,0.140,0.087,�k,2.1,��
2019/10/18,12:50,0.184,0.163,0.276,0.258,0.262,0.140,0.086,�k�k��,2.2,��
2019/10/18,13:00,0.185,0.162,0.275,0.260,0.263,0.140,0.087,�k�k��,2.2,��
2019/10/18,13:10,0.184,0.164,0.276,0.259,0.261,0.140,0.086,�k��,2.6,��
2019/10/18,13:20,0.185,0.163,0.275,0.260,0.262,0.140,0.086,�k�k��,3.1,��
2019/10/18,13:30,0.185,0.163,0.276,0.257,0.260,0.140,0.086,�k�k��,2.4,��
2019/10/18,13:40,0.183,0.162,0.271,0.257,0.263,0.140,0.087,�k�k��,2.5,��
2019/10/18,13:50,0.186,0.164,0.272,0.256,0.261,0.139,0.086,�k�k��,2.7,��
2019/10/18,14:00,0.183,0.162,0.272,0.261,0.262,0.139,0.086,�k��,2.7,��
2019/10/18,14:10,0.185,0.163,0.274,0.258,0.260,0.140,0.086,�k�k��,3.1,��
2019/10/18,14:20,0.184,0.163,0.274,0.260,0.263,0.139,0.086,�k��,2.2,��
2019/10/18,14:30,0.185,0.163,0.276,0.258,0.259,0.138,0.086,�k�k��,2.9,��
2019/10/18,14:40,0.184,0.162,0.276,0.259,0.263,0.139,0.087,�k,2.0,��
2019/10/18,14:50,0.185,0.158,0.276,0.259,0.261,0.140,0.086,�k�k��,2.4,��
2019/10/18,15:00,0.183,0.163,0.275,0.261,0.262,0.139,0.086,�k�k��,3.1,��
2019/10/18,15:10,0.185,0.163,0.277,0.259,0.262,0.139,0.085,�k�k��,3.3,��
2019/10/18,15:20,0.183,0.162,0.276,0.260,0.262,0.139,0.085,�k,2.9,��
2019/10/18,15:30,0.184,0.163,0.276,0.259,0.261,0.140,0.086,�k�k��,2.0,��
2019/10/18,15:40,-,0.162,0.274,0.259,0.262,0.140,0.086,�k�k��,2.6,��
2019/10/18,15:50,0.184,0.164,0.277,0.258,0.262,0.139,0.087,�k�k��,2.3,��
2019/10/18,16:00,0.184,0.162,0.275,0.259,0.261,0.140,0.087,�k�k��,2.3,��
2019/10/18,16:10,0.184,0.164,0.277,0.259,0.263,0.139,0.086,�k�k��,2.0,��
2019/10/18,16:20,0.184,0.162,0.275,0.258,0.260,0.140,0.086,�k,2.2,��
2019/10/18,16:30,0.185,0.164,0.276,0.257,0.263,0.139,0.085,�k�k��,2.5,��
2019/10/18,16:40,0.184,0.163,0.276,-,0.261,0.139,0.087,�k,1.9,��
2019/10/18,16:50,0.185,0.163,0.277,0.257,0.262,0.139,0.087,�k�k��,2.3,��
2019/10/18,17:00,0.184,0.162,0.276,0.257,0.262,0.139,0.086,�k�k��,2.3,��
2019/10/18,17:10,0.184,0.164,0.275,0.258,0.261,0.139,0.086,�k�k��,3.0,��
2019/10/18,17:20,0.183,0.163,0.275,0.259,0.263,0.138,0.086,�k�k��,3.0,��
2019/10/18,17:30,0.185,0.163,0.275,0.258,0.262,-,0.086,�k�k��,3.4,��
2019/10/18,17:40,0.183,0.163,0.277,0.259,0.261,0.139,0.086,�k�k��,2.9,��
2019/10/18,17:50,0.185,0.163,0.275,0.258,0.262,0.140,0.087,�k�k��,2.8,��
2019/10/18,18:00,0.184,0.164,0.277,0.260,0.262,0.139,0.086,�k�k��,2.6,��
2019/10/18,18:10,0.185,0.162,0.274,0.257,0.261,0.139,0.087,�k��,3.1,��
2019/10/18,18:20,0.184,0.164,0.278,0.260,0.262,0.140,0.086,�k��,3.2,��
2019/10/18,18:30,0.185,0.162,0.275,0.259,0.261,0.139,0.086,�k��,2.7,��
2019/10/18,18:40,0.184,0.163,0.277,0.259,0.263,0.140,0.086,�k�k��,3.2,��
2019/10/18,18:50,0.185,0.163,0.275,0.259,0.262,0.139,0.086,�k�k��,3.0,��
2019/10/18,19:00,0.184,0.164,0.277,0.260,0.262,0.140,0.086,�k�k��,2.9,��
2019/10/18,19:10,0.184,0.162,0.277,0.260,0.261,0.138,0.086,�k�k��,2.8,�L
2019/10/18,19:20,0.183,0.163,0.277,0.258,0.263,0.140,0.087,�k�k��,2.6,��
2019/10/18,19:30,0.185,0.164,0.277,0.260,0.261,0.139,0.086,�k��,3.1,��
2019/10/18,19:40,0.185,0.163,0.277,0.257,0.263,0.140,0.086,�k��,2.7,��
2019/10/18,19:50,0.185,0.163,0.277,0.261,0.260,0.139,0.086,�k��,3.0,��
2019/10/18,20:00,0.184,0.163,0.276,0.258,0.262,0.140,0.086,�k�k��,2.1,��
2019/10/18,20:10,0.185,0.163,0.275,0.260,0.260,0.140,0.086,�k��,2.2,��
2019/10/18,20:20,0.185,0.162,0.275,0.258,0.263,0.139,0.086,�k,2.9,��
2019/10/18,20:30,0.185,0.164,0.277,0.260,0.260,0.139,0.086,�k,1.8,�L
2019/10/18,20:40,0.184,0.163,0.275,0.258,0.264,0.140,0.087,�k,1.0,�L
2019/10/18,20:50,0.184,0.162,0.276,0.259,0.261,0.140,0.087,�k,1.8,�L
2019/10/18,21:00,0.186,0.165,0.276,0.259,0.264,0.140,0.087,�k�k��,2.4,�L
2019/10/18,21:10,0.185,0.163,0.279,0.260,0.262,0.140,0.086,�k��,3.6,�L
2019/10/18,21:20,0.185,0.165,0.276,0.258,0.262,0.141,0.087,�k��,2.4,��
2019/10/18,21:30,0.185,0.164,0.277,0.259,0.261,0.141,0.087,�k��,2.7,��
2019/10/18,21:40,0.185,0.163,0.277,0.260,0.263,0.140,0.086,�k��,2.3,�L
2019/10/18,21:50,0.184,0.163,0.276,0.258,0.262,0.140,0.086,�k�k��,2.4,�L
2019/10/18,22:00,0.185,0.162,0.277,0.258,0.264,0.139,0.087,�k�k��,1.8,�L
2019/10/18,22:10,0.184,0.164,0.276,0.258,0.263,0.141,0.086,�k�k��,2.1,�L
2019/10/18,22:20,0.186,0.163,0.278,0.259,0.264,0.140,0.087,�k�k��,1.9,�L
2019/10/18,22:30,0.184,0.164,0.276,0.260,0.262,0.141,0.087,�k,1.0,��
2019/10/18,22:40,0.185,0.162,0.277,0.258,0.261,0.139,0.087,�k,0.8,��
2019/10/18,22:50,0.184,0.164,0.276,0.260,0.264,0.140,0.087,�k��,1.4,�L
2019/10/18,23:00,0.184,0.164,0.278,0.258,0.262,0.140,0.087,�k,1.3,�L
2019/10/18,23:10,0.184,0.163,0.276,0.260,0.261,0.141,0.087,-,CALM,�L
2019/10/18,23:20,0.186,0.164,0.277,0.258,0.261,0.141,0.087,���k��,2.3,�L
2019/10/18,23:30,0.185,0.164,0.278,0.259,0.263,0.141,0.088,�k,3.2,�L
2019/10/18,23:40,0.186,0.166,0.277,0.259,0.262,0.141,0.088,�k�k��,4.0,�L
2019/10/18,23:50,0.187,0.164,0.279,0.259,0.263,0.141,0.088,�k�k��,3.9,�L
